Terminal Aerodrome Forecast
Issued by NWS

Current Version | Previous Version | Text Only | Print | Product List | Glossary On
Versions: 1 2 3 4 5 6 7 8 9 10 11 12 13 14 15 16 17 18 19 20
000
FTUS44 KOHX 161300 AAB
TAFCKV
TAF AMD
KCKV 161319Z 1613/1712 34009KT 5SM BR VCSH OVC006
      TEMPO 1613/1615 OVC009
     FM161700 01007KT P6SM BKN040
     FM170100 34003KT P6SM SKC
     FM170800 32003KT 3SM BR SKC=

USA.gov is the U.S. government's official web portal to all federal, state and local government web resources and services.